EW1558 Weather Reports


Display with metric or nautical units.
time (UTC)temp
F
wind
direction
speed
MPH
gust
MPH
rain 1hr
in
rain 24hr
in
rain mn
in
humidity
%
barometer
mb
20260904221503 90 254 1.0 5.0 0.00 0.02 0.02 65 1009.0
20260904220114 89 215 1.0 5.0 0.00 0.02 0.02 66 1009.0
20260904214559 89 205 0.0 2.0 0.00 0.02 0.02 68 1009.0
20260904213058 89 281 0.0 6.0 0.00 0.02 0.02 67 1009.1
20260904211612 89 225 1.0 4.0 0.00 0.02 0.02 65 1009.0
20260904210056 89 221 0.0 5.0 0.00 0.02 0.02 65 1008.9
20260904204555 90 223 2.0 6.0 0.00 0.02 0.02 64 1008.9
20260904203054 88 205 1.0 5.0 0.00 0.02 0.02 66 1009.3
20260904201551 87 232 0.0 6.0 0.00 0.02 0.02 66 1009.4
20260904200053 88 240 2.0 10.0 0.00 0.02 0.02 65 1009.5
20260904194550 87 221 3.0 8.0 0.00 0.03 0.02 68 1009.9
20260904193043 86 204 3.0 8.0 0.00 0.03 0.02 69 1010.1
20260904191546 85 209 2.0 9.0 0.00 0.03 0.02 71 1010.6
20260904190045 84 213 3.0 9.0 0.00 0.03 0.02 73 1010.8
20260904184536 82 277 4.0 16.0 0.00 0.03 0.02 77 1011.0
20260904183027 81 217 3.0 8.0 0.01 0.03 0.02 82 1011.3
20260904181523 78 217 6.0 12.0 0.01 0.03 0.02 87 1011.3
20260904180018 76 220 7.0 22.0 0.02 0.03 0.02 91 1011.2
20260904174514 74 232 10.0 18.0 0.02 0.03 0.02 95 1011.5
20260904173029 72 232 9.0 14.0 0.01 0.02 0.01 96 1011.9
20260904171516 73 175 4.0 8.0 0.01 0.02 0.01 95 1013.4
20260904170015 73 214 3.0 8.0 0.00 0.01 0.00 95 1014.6
20260904164515 73 227 6.0 10.0 0.00 0.13 0.00 95 1014.1
20260904163012 73 216 6.0 10.0 0.00 0.13 0.00 95 1014.1
20260904161511 73 200 6.0 13.0 0.00 0.13 0.00 95 1014.3
20260904160012 73 175 7.0 10.0 0.00 0.13 0.00 94 1014.6
20260904154510 73 115 8.0 12.0 0.00 0.13 0.00 95 1015.0
20260904153009 73 134 8.0 14.0 0.00 0.13 0.00 95 1014.9
20260904151512 74 99 8.0 12.0 0.00 0.13 0.00 94 1015.1
20260904150014 73 117 9.0 14.0 0.00 0.13 0.00 95 1014.8
20260904144504 74 137 3.0 8.0 0.00 0.13 0.00 96 1013.9
20260904143002 74 169 1.0 5.0 0.00 0.13 0.00 95 1013.2
20260904141601 74 185 1.0 5.0 0.00 0.13 0.00 96 1013.0
20260904134558 72 90 0.0 3.0 0.00 0.13 0.00 98 1013.2
20260904133102 71 74 2.0 5.0 0.00 0.13 0.00 98 1013.2
20260904131553 71 76 0.0 4.0 0.00 0.13 0.00 98 1013.0
20260904130051 70 67 3.0 5.0 0.00 0.13 0.00 98 1012.8
20260904124552 71 65 1.0 5.0 0.00 0.13 0.00 97 1012.6
20260904123046 72 121 0.0 1.0 0.00 0.13 0.00 98 1012.1
20260904121546 71 77 2.0 4.0 0.00 0.13 0.00 97 1012.1
20260904120052 71 75 0.0 3.0 0.00 0.13 0.00 98 1011.7
20260904114545 70 64 0.0 5.0 0.00 0.13 0.00 97 1011.4
20260904113041 70 63 4.0 9.0 0.00 0.13 0.00 98 1011.4
20260904111539 71 63 5.0 14.0 0.00 0.13 0.00 98 1011.1
20260904110042 71 85 8.0 19.0 0.00 0.13 0.00 98 1011.0
20260904104536 72 34 5.0 9.0 0.00 0.13 0.00 96 1010.6
20260904103041 74 93 0.0 0.0 0.00 0.13 0.00 98 1010.0
20260904101535 74 93 0.0 0.0 0.00 0.13 0.00 98 1010.0
20260904100037 73 93 0.0 0.0 0.00 0.13 0.00 97 1010.0
20260904094541 74 187 0.0 0.0 0.00 0.13 0.00 98 1010.1
20260904093040 74 187 0.0 0.0 0.00 0.13 0.00 98 1009.8
20260904091536 74 187 0.0 0.0 0.00 0.13 0.00 98 1009.7
20260904090032 74 187 0.0 0.0 0.00 0.13 0.00 99 1009.7
20260904084534 74 187 0.0 0.0 0.00 0.13 0.00 99 1009.4
20260904083029 73 187 0.0 0.0 0.00 0.13 0.00 99 1009.7
20260904081527 72 68 0.0 0.0 0.00 0.13 0.00 99 1010.0
20260904080026 72 67 0.0 0.0 0.00 0.13 0.00 98 1010.5
20260904074525 73 67 0.0 0.0 0.00 0.13 0.00 99 1010.4
20260904073025 73 67 0.0 0.0 0.00 0.13 0.00 99 1010.2
20260904071524 72 67 0.0 1.0 0.00 0.13 0.00 99 1010.0
20260904070023 71 67 0.0 0.0 0.00 0.13 0.00 99 1010.3
20260904064524 71 67 0.0 0.0 0.00 0.13 0.00 98 1010.1
20260904063026 72 67 0.0 0.0 0.00 0.13 0.00 98 1010.2
20260904061528 73 67 0.0 0.0 0.00 0.13 0.00 98 1010.4
20260904060013 73 67 0.0 0.0 0.00 0.13 0.00 99 1010.6
20260904054515 73 67 0.0 0.0 0.00 0.13 0.00 99 1010.8
20260904053011 72 67 0.0 0.0 0.00 0.13 0.00 99 1011.1
20260904051507 73 67 0.0 0.0 0.00 0.13 0.00 99 1011.5
20260904050004 73 67 0.0 0.0 0.00 0.13 0.00 99 1011.3
20260904044507 73 67 0.0 0.0 0.00 0.13 0.13 99 1011.1
20260904043007 73 67 0.0 0.0 0.00 0.13 0.13 99 1011.1
20260904041507 72 67 0.0 0.0 0.00 0.13 0.13 99 1011.3
20260904040003 72 63 0.0 1.0 0.00 0.13 0.13 99 1011.4
20260904034501 72 63 0.0 1.0 0.00 0.13 0.13 98 1011.5
20260904033001 71 55 0.0 4.0 0.00 0.13 0.13 98 1011.9
20260904031604 72 96 0.0 1.0 0.00 0.13 0.13 98 1011.8
20260904030100 73 205 0.0 0.0 0.00 0.13 0.13 98 1011.8
20260904024606 73 205 0.0 0.0 0.00 0.13 0.13 98 1011.8
20260904023105 73 205 0.0 0.0 0.00 0.13 0.13 98 1011.8
20260904021559 73 205 0.0 0.0 0.00 0.13 0.13 98 1011.5
20260904020057 72 205 0.0 1.0 0.00 0.13 0.13 97 1011.5
20260904014559 73 219 0.0 0.0 0.00 0.13 0.13 96 1011.3
20260904013121 73 219 0.0 0.0 0.00 0.13 0.13 97 1011.1
20260904011555 73 219 0.0 0.0 0.00 0.13 0.13 97 1011.1
20260904010055 73 219 0.0 0.0 0.00 0.13 0.13 96 1010.8
20260904004554 73 219 0.0 2.0 0.00 0.13 0.13 96 1010.4
20260904003053 73 228 2.0 5.0 0.00 0.13 0.13 96 1010.1
20260904001606 73 222 1.0 5.0 0.00 0.13 0.13 95 1010.1
20260904000053 74 225 1.0 5.0 0.00 0.13 0.13 94 1010.0
20260903234551 74 216 1.0 4.0 0.00 0.13 0.13 94 1010.0
20260903233050 74 147 0.0 3.0 0.00 0.13 0.13 94 1010.4
20260903231601 74 126 0.0 4.0 0.00 0.13 0.13 94 1010.5
20260903230049 74 126 0.0 3.0 0.00 0.13 0.13 94 1010.4
20260903224550 74 105 3.0 6.0 0.00 0.13 0.13 92 1010.7
20260903223049 76 205 6.0 11.0 0.00 0.13 0.13 86 1010.4